[[{"header":{"parameterUnit":"m.s-1","parameterCategory":1,"la1":30.2991,"la2":30.254,"lo1":-89.0895,"lo2":-89.0444,"dy":0.0017,"dx":0.0017,"nx":28,"ny":28,"refTime":"2025-06-01T21:00:00:Z","depth":0,"parameterNumber":2,"parameterNumberName":"U-component_of_WINDS"},"data":[0,0,0,0,0,0,0,0,0,0,0,0,0,0,0,0,0,0,0,0,0,0,0,0,0,0,0,0,0,0,0,0,0,0,0,0,0,0,0,0,0,0,0,0,0,0,0,0,0,0,0,0,0,0,0,0,0,0,-6.0674,-6.0675,0,-6.0679,-6.0679,-6.0679,-6.0603,-6.0601,-6.0599,-6.0597,-6.0601,-6.0603,-6.0605,0,0,0,0,0,0,0,0,0,0,0,0,0,-6.0601,-6.0603,-6.0674,-6.0675,-6.0675,-6.0679,-6.0679,-6.0679,-6.0603,-6.0601,-6.0598,-6.0596,-6.06,-6.0603,-6.0605,0,0,0,0,0,0,0,0,0,0,0,0,0,-6.0622,-6.0604,-6.0674,-6.0637,-6.0634,-6.0679,-6.0679,-6.0679,-6.0604,-6.0601,-6.0598,-6.0595,-6.06,-6.0603,-6.0606,-6.0686,0,0,-6.0615,-6.0616,0,0,0,0,0,0,0,0,-6.0621,-6.0625,-6.0643,-6.064,-6.0636,-6.0637,-6.0655,-6.0681,-6.0605,-6.0615,-6.0597,-6.0593,-6.0616,-6.0617,-6.0625,-6.0686,-6.0686,-6.0615,-6.0617,-6.0618,-6.0619,0,0,0,0,0,0,0,-6.062,-6.0624,-6.0676,-6.0643,-6.0639,-6.0621,-6.062,-6.0659,-6.0633,-6.0614,-6.0609,-6.061,-6.0613,-6.0622,-6.0624,-6.0686,-6.0615,-6.0618,-6.062,-6.0621,-6.0815,-6.0818,0,0,0,0,0,0,-6.0623,-6.0624,-6.0676,-6.0676,-6.0621,-6.0625,-6.0624,-6.064,-6.0632,-6.0628,-6.0613,-6.0607,-6.0618,-6.0621,-6.0624,-6.0717,-6.0618,-6.0621,-6.0623,-6.0811,-6.0815,-6.0819,0,0,0,0,0,0,-6.0622,-6.0629,-6.0676,-6.0649,-6.0653,-6.0629,-6.0648,-6.0642,-6.065,-6.0631,-6.0626,-6.0626,-6.0616,-6.062,-6.0671,-6.0716,-6.0622,-6.0625,-6.0807,-6.0812,-6.0817,-6.0903,0,0,0,0,0,0,-6.062,-6.0629,-6.0658,-6.065,-6.0655,-6.0723,-6.065,-6.0644,-6.0656,-6.0648,-6.0642,-6.0639,-6.0614,-6.0667,-6.0674,-6.0718,-6.0628,-6.0803,-6.081,-6.0816,-6.0896,-6.091,-6.0923,0,0,0,0,0,-6.0618,-6.0682,-6.066,-6.0667,-6.0692,-6.0725,-6.0728,-6.0698,-6.066,-6.0689,-6.0678,-6.0639,-6.0711,-6.0673,-6.068,-6.0726,-6.08,-6.0808,-6.0815,-6.089,-6.0908,-6.0922,0,0,0,0,0,0,-6.0696,-6.068,-6.0656,-6.0719,-6.0724,-6.0712,-6.0749,-6.0718,-6.0734,-6.0725,-6.0688,-6.0687,-6.0745,-6.0741,-6.0699,-6.0804,-6.0749,-6.0758,-6.0803,-6.082,-6.0833,-6.0831,-6.063,0,0,0,0,0,-6.0721,-6.075,-6.0735,-6.0792,-6.0796,-6.0773,-6.0786,-6.0763,-6.0767,-6.0768,-6.076,-6.0765,-6.0788,-6.0804,-6.0825,-6.0897,-6.0894,-6.0932,-6.0946,-6.0957,-6.0964,-6.1001,-6.1017,-6.0843,-6.0843,-6.0843,0,0,-6.0772,-6.0767,-6.0787,-6.0808,-6.0809,-6.0839,-6.0774,-6.0809,-6.0831,-6.0773,-6.082,-6.0816,-6.0819,-6.0881,-6.0907,-6.0879,-6.1012,-6.0966,-6.0975,-6.0976,-6.1011,-6.1027,-6.1042,-6.0849,-6.0848,-6.0847,0,0,-6.0879,-6.0879,-6.0927,-6.093,-6.0933,-6.0917,-6.0929,-6.0923,-6.0917,-6.0965,-6.0922,-6.0949,-6.099,-6.0994,-6.1001,-6.1115,-6.1079,-6.1123,-6.1191,-6.1228,-6.1241,-6.1253,-6.1292,-6.1306,-6.1131,-6.1132,-6.1132,0,-6.0941,-6.0985,-6.0955,-6.0993,-6.1003,-6.0954,-6.1002,-6.1007,-6.1016,-6.1025,-6.0994,-6.1046,-6.1044,-6.1106,-6.1134,-6.1143,-6.1154,-6.1121,-6.1242,-6.1254,-6.1264,-6.13,-6.1315,-6.1137,-6.1136,-6.1135,-6.1135,0,-6.1061,-6.1093,-6.1131,-6.1142,-6.1158,-6.1201,-6.1177,-6.1196,-6.1174,-6.1162,-6.1211,-6.1209,-6.1228,-6.1242,-6.122,-6.1301,-6.1284,-6.1248,-6.1191,-6.1286,-6.132,-6.1334,-6.1144,-6.1142,-6.114,-6.1139,0,0,-6.1214,-6.121,-6.1224,-6.1229,-6.123,-6.1254,-6.1296,-6.1315,-6.1332,-6.1342,-6.1375,-6.1413,-6.1381,-6.139,-6.1368,-6.1401,-6.1489,-6.1361,-6.1361,-6.1383,-6.1578,-6.1602,-6.1618,-6.1468,-6.147,-6.1472,-6.1576,0,-6.1316,-6.1386,-6.1361,-6.1432,-6.1461,-6.1417,-6.1453,-6.1458,-6.1449,-6.1473,-6.1463,-6.149,-6.1446,-6.1451,-6.1482,-6.1472,-6.1527,-6.1465,-6.1497,-6.1498,-6.1494,-6.1636,-6.1661,-6.1759,-6.159,-6.1592,-6.1593,0,-6.1444,-6.1459,-6.1534,-6.1531,-6.1542,-6.1575,-6.1591,-6.1615,-6.1621,-6.1612,-6.1624,-6.1596,-6.1636,-6.1583,-6.1639,-6.1597,-6.161,-6.1607,-6.161,-6.1609,-6.1549,-6.1636,-6.179,-6.1804,-6.1614,-6.1612,-6.1611,0,-6.1545,-6.1585,-6.1634,-6.164,-6.1639,-6.1663,-6.1664,-6.1666,-6.168,-6.1695,-6.1704,-6.1724,-6.1734,-6.1751,-6.1729,-6.1693,-6.1788,-6.1733,-6.1781,-6.1782,-6.1799,-6.1798,-6.1955,-6.1814,-6.1813,-6.1813,-6.1813,0,-6.166,-6.1706,-6.1679,-6.1709,-6.176,-6.1733,-6.1785,-6.1781,-6.1784,-6.1813,-6.1777,-6.1805,-6.1776,-6.1802,-6.1786,-6.1834,-6.184,-6.1833,-6.1828,-6.1834,-6.1835,-6.1839,-6.1831,-6.1817,-6.1816,-6.1815,-6.1815,0,-6.1779,-6.1763,-6.1813,-6.1809,-6.181,-6.1847,-6.1844,-6.1872,-6.1862,-6.1899,-6.1906,-6.189,-6.1919,-6.19,-6.1929,-6.1918,-6.198,-6.1967,-6.1978,-6.1973,-6.2021,-6.2016,-6.2183,-6.2203,-6.2052,-6.2054,-6.2055,0,-6.1851,-6.1886,-6.1887,-6.1903,-6.1907,-6.1934,-6.1949,-6.1925,-6.1941,-6.1952,-6.1978,-6.2004,-6.2022,-6.207,-6.2061,-6.2083,-6.2068,-6.2126,-6.2071,-6.2077,-6.2066,-6.2063,-6.2066,-6.2135,-6.2137,-6.2138,-6.214,0,-6.1981,-6.1972,-6.1994,-6.2014,-6.2032,-6.2047,-6.2059,-6.2075,-6.2051,-6.2071,-6.21,-6.2115,-6.2145,-6.217,-6.2189,-6.219,-6.2161,-6.2158,-6.2169,-6.2175,-6.2179,-6.2175,-6.2004,-6.2153,-6.2152,-6.2151,-6.215,-6.2149,-6.2077,-6.2106,-6.2111,-6.2137,-6.2144,-6.2156,-6.2182,-6.2177,-6.22,-6.2222,-6.2208,-6.2242,-6.2248,-6.2271,-6.2276,-6.2302,-6.2279,-6.2296,-6.23,-6.2304,-6.231,-6.2178,-6.2306,-6.2306,-6.2305,-6.2305,-6.2305,0,-6.2203,-6.2205,-6.2229,-6.2247,-6.2268,-6.2241,-6.2253,-6.2272,-6.2303,-6.2312,-6.2331,-6.2365,-6.239,-6.2385,-6.2408,-6.243,-6.2417,-6.2437,-6.2433,-6.2434,-6.233,-6.2317,-6.2447,-6.2447,-6.2447,-6.2447,-6.2447,-6.2447,-6.227,-6.2318,-6.231,-6.2361,-6.2362,-6.2395,-6.2405,-6.2416,-6.2423,-6.2462,-6.2483,-6.248,-6.2483,-6.2507,-6.2529,-6.2527,-6.2536,-6.256,-6.2552,-6.2455,-6.2441,-6.2427,-6.2414,-6.2563,-6.2563,-6.2653,-6.2654,-6.2655]},{"header":{"parameterUnit":"m.s-1","parameterCategory":1,"la1":30.2991,"la2":30.254,"lo1":-89.0895,"lo2":-89.0444,"dy":0.0017,"dx":0.0017,"nx":28,"ny":28,"refTime":"2025-06-01T21:00:00:Z","depth":0,"parameterNumber":3,"parameterNumberName":"V-component_of_WINDS"},"data":[0,0,0,0,0,0,0,0,0,0,0,0,0,0,0,0,0,0,0,0,0,0,0,0,0,0,0,0,0,0,0,0,0,0,0,0,0,0,0,0,0,0,0,0,0,0,0,0,0,0,0,0,0,0,0,0,0,0,4.4802,4.4802,0,4.4838,4.4839,4.4839,4.4855,4.4855,4.4855,4.4855,4.4888,4.4889,4.489,0,0,0,0,0,0,0,0,0,0,0,0,0,4.4743,4.4744,4.4802,4.4802,4.4802,4.4838,4.4839,4.4839,4.4855,4.4855,4.4855,4.4854,4.4888,4.4889,4.489,0,0,0,0,0,0,0,0,0,0,0,0,0,4.4773,4.4744,4.4801,4.4815,4.4816,4.4838,4.4839,4.4839,4.4855,4.4855,4.4855,4.4854,4.4888,4.4889,4.4891,4.4901,0,0,4.4895,4.4896,0,0,0,0,0,0,0,0,4.4771,4.4775,4.4812,4.4814,4.4816,4.4842,4.4831,4.486,4.4855,4.484,4.4855,4.4854,4.4873,4.4875,4.4882,4.4903,4.4904,4.4895,4.4896,4.4897,4.4897,0,0,0,0,0,0,0,4.4769,4.4774,4.4816,4.4813,4.4815,4.4818,4.4822,4.4836,4.4856,4.4841,4.4842,4.4847,4.4874,4.4881,4.4883,4.4905,4.4895,4.4896,4.4897,4.4898,4.4937,4.4937,0,0,0,0,0,0,4.4765,4.4772,4.4815,4.4817,4.4793,4.4819,4.4824,4.4833,4.4856,4.486,4.4847,4.4847,4.4879,4.4882,4.4884,4.4899,4.4897,4.4898,4.4899,4.4937,4.4937,4.4937,0,0,0,0,0,0,4.4764,4.4769,4.4813,4.4795,4.4801,4.482,4.4831,4.4834,4.4842,4.486,4.4864,4.4851,4.4879,4.4882,4.4897,4.4901,4.4898,4.49,4.4937,4.4937,4.4937,4.4928,0,0,0,0,0,0,4.4762,4.4768,4.4773,4.4795,4.4802,4.4826,4.4831,4.4835,4.4844,4.4846,4.4865,4.4868,4.4879,4.4895,4.4899,4.4903,4.4901,4.4936,4.4937,4.4937,4.4928,4.4928,4.4928,0,0,0,0,0,4.476,4.4768,4.4773,4.4778,4.4808,4.4826,4.483,4.4843,4.4845,4.4849,4.4862,4.4867,4.49,4.4897,4.4901,4.4905,4.4936,4.4937,4.4937,4.4928,4.4928,4.4928,0,0,0,0,0,0,4.4743,4.4771,4.4777,4.4792,4.4807,4.4829,4.4835,4.4842,4.4856,4.4856,4.4871,4.4876,4.489,4.4899,4.4895,4.4917,4.4919,4.492,4.4911,4.4911,4.4911,4.4908,4.4902,0,0,0,0,0,4.4742,4.4756,4.4778,4.4789,4.4797,4.4815,4.4823,4.4832,4.4848,4.4854,4.4867,4.4881,4.4895,4.4903,4.4917,4.493,4.4935,4.4935,4.4935,4.4935,4.4936,4.4945,4.4945,4.4939,4.4939,4.4939,0,0,4.4738,4.4754,4.4762,4.4786,4.4799,4.4813,4.482,4.4833,4.4843,4.4855,4.4871,4.4882,4.4898,4.4913,4.492,4.4921,4.4939,4.4936,4.4935,4.4936,4.4945,4.4946,4.4946,4.4939,4.4939,4.4939,0,0,4.4738,4.4752,4.4763,4.4777,4.4797,4.4809,4.4812,4.4833,4.4842,4.4858,4.4868,4.488,4.4902,4.4915,4.4924,4.4931,4.4937,4.4935,4.4934,4.4943,4.4943,4.4944,4.4947,4.4948,4.4936,4.4936,4.4936,0,4.473,4.4751,4.4768,4.4782,4.4792,4.4807,4.4819,4.483,4.4853,4.486,4.4861,4.4892,4.4904,4.4922,4.4924,4.4931,4.4935,4.4932,4.4942,4.4943,4.4944,4.4947,4.4948,4.4936,4.4936,4.4936,4.4936,0,4.4741,4.4756,4.4763,4.4787,4.4799,4.4812,4.483,4.4839,4.4848,4.486,4.4877,4.4893,4.491,4.4916,4.4923,4.4936,4.4936,4.494,4.4941,4.4944,4.4947,4.4948,4.4935,4.4935,4.4935,4.4935,0,0,4.473,4.4765,4.4767,4.4779,4.4804,4.4815,4.4829,4.4848,4.4856,4.4872,4.4884,4.4904,4.4909,4.4919,4.4928,4.4936,4.4942,4.4939,4.494,4.4939,4.4957,4.4954,4.4956,4.4947,4.4947,4.4947,4.4956,0,4.4733,4.476,4.4776,4.4796,4.481,4.4825,4.4838,4.4854,4.4866,4.4879,4.4892,4.4907,4.4911,4.4918,4.4926,4.494,4.4946,4.4939,4.4958,4.4958,4.4953,4.4957,4.4954,4.4961,4.4957,4.4958,4.4958,0,4.474,4.4758,4.478,4.4805,4.4812,4.4822,4.4842,4.4855,4.4874,4.4883,4.4896,4.4906,4.4921,4.4922,4.4943,4.4938,4.4947,4.4955,4.4955,4.4957,4.4958,4.4959,4.4964,4.4965,4.496,4.496,4.496,0,4.473,4.476,4.4777,4.4787,4.4816,4.4824,4.4836,4.4855,4.4866,4.4883,4.489,4.4908,4.4918,4.4931,4.4946,4.4945,4.4966,4.4968,4.4973,4.4973,4.4976,4.4975,4.4982,4.4982,4.4982,4.4982,4.4982,0,4.4732,4.4745,4.4774,4.4784,4.4799,4.4818,4.4832,4.4846,4.4863,4.4876,4.489,4.4902,4.4921,4.4935,4.4946,4.4963,4.4967,4.4974,4.4976,4.4972,4.4971,4.4978,4.4978,4.4982,4.4982,4.4982,4.4982,0,4.4723,4.4743,4.4763,4.479,4.4798,4.4808,4.4831,4.4841,4.4855,4.4872,4.4877,4.4898,4.4916,4.4933,4.4955,4.4963,4.498,4.4983,4.4974,4.4975,4.498,4.4979,4.499,4.4993,4.499,4.499,4.499,0,4.4723,4.4734,4.4763,4.4774,4.4787,4.4804,4.4816,4.4835,4.4847,4.4871,4.4879,4.4898,4.4915,4.4942,4.4959,4.4977,4.4981,4.4984,4.4984,4.498,4.4982,4.4981,4.4982,4.4983,4.4983,4.4983,4.4983,0,4.4721,4.4731,4.4749,4.4771,4.4786,4.4803,4.4821,4.4829,4.4852,4.4864,4.4884,4.4897,4.4922,4.4941,4.4961,4.4973,4.4982,4.4983,4.4986,4.4981,4.4976,4.4979,4.4973,4.4983,4.4983,4.4983,4.4983,4.4983,4.4717,4.4728,4.4751,4.4771,4.4787,4.4805,4.4817,4.4833,4.485,4.4873,4.4884,4.4903,4.4923,4.4952,4.4964,4.4979,4.4981,4.4984,4.4985,4.4985,4.4985,4.4974,4.4983,4.4983,4.4983,4.4983,4.4983,0,4.4716,4.4733,4.4751,4.4777,4.4793,4.4803,4.4823,4.4836,4.4854,4.4872,4.4889,4.4912,4.4931,4.495,4.497,4.4979,4.4983,4.4983,4.4983,4.4985,4.4982,4.4978,4.4979,4.4979,4.4979,4.4979,4.4979,4.4979,4.4718,4.4737,4.475,4.4778,4.4794,4.4816,4.4827,4.4843,4.4858,4.4884,4.49,4.4914,4.4933,4.4955,4.4972,4.4978,4.4984,4.4983,4.4989,4.4985,4.4985,4.4985,4.4982,4.4984,4.4984,4.4992,4.4992,4.4992]}]]